Hatteras, NC

11:04 PM EDT on October 20, 2019 (GMT -0400)
Mitchell

Weather History for KHSE - August, 2019

Change the Weather History Date:

Monday, August 5, 2019

  Actual Average Record
Temperature  
Mean Temperature 82 °F 79 °F  
Max Temperature 89 °F 85 °F 91 °F (1984)
Min Temperature 75 °F 73 °F 60 °F (1976)
Degree Days  
Heating Degree Days 0 0  
Month to date heating degree days 0 0  
Since 1 June heating degree days 0 3  
Since 1 July heating degree days 0 0  
Cooling Degree Days 17 14  
Month to date cooling degree days 80 70  
Year to date cooling degree days 1380 958  
Since 1 June cooling degree days 998 815  
Growing Degree Days 32 (Base 50)    
Moisture  
Dew Point 74 °F    
Average Humidity 84    
Maximum Humidity 96    
Minimum Humidity 61    
Precipitation  
Precipitation 0.41 in 0.21 in 2.42 in (1894)
Month to date precipitation 1.50 1.01  
Year to date precipitation 33.22 31.27  
Snow  
Snow 0.00 in - - ()
Month to date snowfall 0.0  
Since 1 July snowfall 0.0  
Snow Depth 0.00 in    
Sea Level Pressure  
Sea Level Pressure 29.94 in    
Wind  
Wind Speed 3 mph ()    
Max Wind Speed 12 mph    
Max Gust Speed 15 mph    
Visibility 7.7 miles    
Events Rain , Thunderstorm    
T = Trace of Precipitation, MM = Missing Value Source: Averaged Metar Reports

Daily Weather History Graph

Daily Weather History Graph

Search for Another Location

Airport or City:

Astronomy

Aug. 05, 2019 Rise Set
Actual Time 6:14 AM EDT 8:02 PM EDT
Civil Twilight 5:46 AM EDT 8:29 PM EDT
Nautical Twilight 5:13 AM EDT 9:03 PM EDT
Astronomical Twilight 4:37 AM EDT 9:38 PM EDT
Moon 11:17 AM EDT (8/5) 11:25 PM EDT (8/5)
Length of Visible Light 14h 43m
Length of Day
13h 47m
Waxing Crescent, 28% of the Moon is Illuminated
Aug 5
Waxing Crescent
Aug 7
First Quarter
Aug 15
Full
Aug 23
Last Quarter
Aug 30
New

Hourly Weather History & Observations

Time (EDT) Temp. Heat Index Dew Point Humidity Pressure Visibility Wind Dir Wind Speed Gust Speed Precip Events Conditions
12:51 AM 80.1 °F 84.2 °F 73.0 °F 79% 29.95 in 10.0 mi SW 3.5 mph - N/A   Clear
1:51 AM 77.0 °F - 73.0 °F 88% 29.94 in 10.0 mi Calm Calm - N/A   Clear
2:51 AM 75.9 °F - 73.0 °F 91% 29.94 in 10.0 mi Calm Calm - N/A   Clear
3:51 AM 75.0 °F - 73.0 °F 94% 29.94 in 8.0 mi Calm Calm - N/A   Scattered Clouds
4:51 AM 75.0 °F - 73.0 °F 94% 29.94 in 10.0 mi Calm Calm - N/A   Mostly Cloudy
5:51 AM 75.9 °F - 73.9 °F 94% 29.94 in 10.0 mi Calm Calm - N/A   Overcast
6:51 AM 75.9 °F - 73.9 °F 94% 29.95 in 6.0 mi Calm Calm - N/A   Clear
7:51 AM 79.0 °F - 75.9 °F 90% 29.96 in 10.0 mi Calm Calm - N/A   Clear
8:51 AM 81.0 °F 87.3 °F 75.9 °F 85% 29.96 in 10.0 mi Calm Calm - N/A   Scattered Clouds
9:25 AM 82.9 °F 90.2 °F 75.0 °F 77% 29.96 in 10.0 mi SSE 3.5 mph - N/A   Mostly Cloudy
9:51 AM 84.0 °F 92.6 °F 75.9 °F 76% 29.96 in 10.0 mi SSE 4.6 mph - N/A   Scattered Clouds
10:51 AM 82.9 °F 90.2 °F 75.0 °F 77% 29.98 in 10.0 mi South 5.8 mph - N/A   Clear
11:21 AM 84.9 °F 93.3 °F 75.0 °F 72% 29.97 in 10.0 mi SSW 5.8 mph - N/A Thunderstorm Clear
11:40 AM 84.9 °F 92.1 °F 73.9 °F 69% 29.97 in 10.0 mi SE 3.5 mph - N/A   Scattered Clouds
11:51 AM 84.0 °F 90.2 °F 73.0 °F 69% 29.97 in 10.0 mi NNE 8.1 mph - N/A   Mostly Cloudy
11:59 AM 84.9 °F 91.4 °F 73.0 °F 67% 29.97 in 10.0 mi Variable 6.9 mph - N/A   Overcast
12:36 PM 88.0 °F 96.5 °F 73.9 °F 63% 29.95 in 10.0 mi Variable 5.8 mph - N/A   Scattered Clouds
12:51 PM 84.0 °F 90.2 °F 73.0 °F 69% 29.95 in 10.0 mi Variable 3.5 mph - N/A   Partly Cloudy
1:51 PM 88.0 °F 96.5 °F 73.9 °F 63% 29.94 in 10.0 mi Variable 3.5 mph - N/A   Clear
2:51 PM 87.1 °F 95.4 °F 73.9 °F 65% 29.93 in 10.0 mi SSE 5.8 mph - N/A   Clear
3:51 PM 86.0 °F 92.2 °F 72.0 °F 63% 29.92 in 10.0 mi SE 5.8 mph - N/A   Partly Cloudy
4:51 PM 86.0 °F 93.8 °F 73.9 °F 67% 29.92 in 10.0 mi SE 5.8 mph - N/A   Clear
5:51 PM 84.9 °F 92.1 °F 73.9 °F 69% 29.92 in 10.0 mi SSE 4.6 mph - N/A   Clear
6:51 PM 82.9 °F 89.4 °F 73.9 °F 74% 29.90 in 10.0 mi South 6.9 mph - N/A   Overcast
7:23 PM 77.0 °F - 73.0 °F 88% 29.91 in 1.8 mi SSW 6.9 mph - 0.03 in Rain Heavy Rain
7:28 PM 75.9 °F - 72.0 °F 87% 29.91 in 0.8 mi SW 3.5 mph - 0.07 in Rain Heavy Rain
7:36 PM 75.9 °F - 73.0 °F 91% 29.92 in 1.5 mi South 4.6 mph - 0.10 in Rain Light Rain
7:39 PM 75.9 °F - 73.0 °F 91% 29.92 in 4.0 mi South 4.6 mph - 0.10 in Rain Light Rain
7:48 PM 75.2 °F - 73.4 °F 94% 29.92 in 1.8 mi SSE 5.8 mph - 0.12 in Rain Heavy Rain
7:51 PM 75.9 °F - 73.0 °F 91% 29.92 in 1.8 mi SE 4.6 mph - 0.14 in Rain Heavy Rain
7:59 PM 75.9 °F - 73.0 °F 91% 29.92 in 2.5 mi East 4.6 mph - 0.02 in Rain Heavy Rain
8:09 PM 75.9 °F - 73.9 °F 94% 29.92 in 10.0 mi Calm Calm - 0.02 in Rain , Thunderstorm Light Rain
8:30 PM 75.9 °F - 73.9 °F 94% 29.92 in 10.0 mi Calm Calm - 0.02 in   Overcast
8:51 PM 75.9 °F - 73.9 °F 94% 29.92 in 10.0 mi Calm Calm - 0.03 in   Overcast
9:41 PM 75.9 °F - 73.9 °F 94% 29.93 in 10.0 mi NE 3.5 mph - 0.02 in   Mostly Cloudy
9:51 PM 75.9 °F - 73.9 °F 94% 29.93 in 10.0 mi North 3.5 mph - 0.02 in   Mostly Cloudy
10:16 PM 75.9 °F - 73.9 °F 94% 29.93 in 1.8 mi Calm Calm - 0.02 in Rain Heavy Rain
10:25 PM 75.0 °F - 73.0 °F 94% 29.93 in 2.0 mi NE 4.6 mph - 0.10 in Rain Light Rain
10:32 PM 75.0 °F - 73.9 °F 96% 29.93 in 10.0 mi Calm Calm - 0.10 in Rain Light Rain
10:51 PM 75.0 °F - 73.9 °F 96% 29.93 in 1.5 mi Variable 3.5 mph - 0.12 in Rain Heavy Rain
10:58 PM 75.0 °F - 73.0 °F 94% 29.92 in 1.2 mi NNE 4.6 mph - 0.09 in Rain Light Rain
11:00 PM 75.0 °F - 73.0 °F 94% 29.92 in 2.5 mi NNE 4.6 mph - 0.09 in Rain Light Rain
11:06 PM 75.0 °F - 73.0 °F 94% 29.92 in 10.0 mi NE 5.8 mph - 0.09 in   Mostly Cloudy
11:51 PM 75.0 °F - 73.9 °F 96% 29.94 in 10.0 mi Calm Calm - 0.09 in   Scattered Clouds